When you browse on this site, cookies collect data to enhance your experience and personalize the content and advertising you see.
Visit our Privacy Policy to learn more. By continuing to use the site, you agree to this use of cookies and data.
  • Em Portugal
  • Lista de países
  • Para 7 dias
  • Temperatura da água
  • Mapas de satélite
  • Mapa do tempo
  • Widgets de tempo
  • user-avatar
    Iniciar Sessão

    Previsão horária em Berezovec

    Hoje, 23 Maio, Quinta-feira

    Tempo Temperatura Precipitação Vento Pressão Humidade
    00:00 +15°C° 0 mm 1 m/s 736 mmHg 88%
    01:00 +14°C° 0 mm 1 m/s 736 mmHg 89%
    02:00 +14°C° 0 mm 1 m/s 735 mmHg 89%
    03:00 +14°C° 0 mm 1 m/s 735 mmHg 89%
    04:00 +15°C° 0 mm 1 m/s 735 mmHg 89%
    05:00 +15°C° 0 mm 1 m/s 735 mmHg 89%
    06:00 +17°C° 0 mm 2 m/s 735 mmHg 84%
    07:00 +18°C° 0 mm 2 m/s 735 mmHg 80%
    08:00 +19°C° 0 mm 3 m/s 735 mmHg 76%
    09:00 +20°C° 0.8 mm 3 m/s 735 mmHg 72%
    10:00 +21°C° 0.8 mm 3 m/s 735 mmHg 69%
    11:00 +22°C° 0.8 mm 3 m/s 734 mmHg 65%
    12:00 +24°C° 0.6 mm 3 m/s 734 mmHg 64%
    13:00 +24°C° 0.6 mm 3 m/s 734 mmHg 63%
    14:00 +24°C° 0 mm 3 m/s 734 mmHg 61%
    15:00 +24°C° 0.5 mm 3 m/s 734 mmHg 66%
    16:00 +24°C° 0.5 mm 3 m/s 734 mmHg 70%
    17:00 +22°C° 0.5 mm 3 m/s 734 mmHg 74%
    18:00 +21°C° 0.1 mm 3 m/s 734 mmHg 79%
    19:00 +19°C° 0.1 mm 3 m/s 734 mmHg 83%
    20:00 +17°C° 0.1 mm 3 m/s 734 mmHg 88%
    21:00 +17°C° 0 mm 3 m/s 734 mmHg 88%
    22:00 +17°C° 0 mm 2 m/s 734 mmHg 89%
    23:00 +16°C° 0 mm 2 m/s 734 mmHg 89%

    Amanhã, 24 Maio, Sexta-feira

    Tempo Temperatura Precipitação Vento Pressão Humidade
    00:00 +16°C° 0 mm 2 m/s 734 mmHg 90%
    01:00 +16°C° 0 mm 2 m/s 735 mmHg 90%
    02:00 +16°C° 0 mm 2 m/s 735 mmHg 91%
    03:00 +16°C° 0 mm 2 m/s 735 mmHg 91%
    04:00 +16°C° 0 mm 2 m/s 735 mmHg 91%
    05:00 +16°C° 0 mm 2 m/s 736 mmHg 91%
    06:00 +17°C° 0 mm 2 m/s 736 mmHg 87%
    07:00 +18°C° 0 mm 2 m/s 737 mmHg 82%
    08:00 +20°C° 0 mm 2 m/s 737 mmHg 77%
    09:00 +20°C° 0.2 mm 3 m/s 737 mmHg 76%
    10:00 +21°C° 0.2 mm 4 m/s 737 mmHg 75%
    11:00 +21°C° 0.2 mm 4 m/s 737 mmHg 74%
    12:00 +21°C° 0.4 mm 4 m/s 738 mmHg 75%
    13:00 +21°C° 0.4 mm 5 m/s 738 mmHg 77%
    14:00 +20°C° 0.4 mm 5 m/s 738 mmHg 78%
    15:00 +20°C° 0.1 mm 5 m/s 738 mmHg 80%
    16:00 +19°C° 0.1 mm 5 m/s 738 mmHg 82%
    17:00 +17°C° 0.1 mm 5 m/s 738 mmHg 84%
    18:00 +17°C° 0.2 mm 5 m/s 738 mmHg 86%
    19:00 +16°C° 0.2 mm 5 m/s 738 mmHg 88%
    20:00 +15°C° 0.2 mm 4 m/s 738 mmHg 91%
    21:00 +14°C° 0.1 mm 4 m/s 738 mmHg 91%
    22:00 +14°C° 0.1 mm 5 m/s 738 mmHg 92%
    23:00 +14°C° 0.1 mm 5 m/s 738 mmHg 93%

    Depois de amanhã, 25 Maio, Sábado

    Tempo Temperatura Precipitação Vento Pressão Humidade
    00:00 +14°C° 0.1 mm 5 m/s 738 mmHg 94%
    01:00 +14°C° 0.1 mm 5 m/s 738 mmHg 94%
    02:00 +14°C° 0.1 mm 5 m/s 737 mmHg 94%
    03:00 +13°C° 0.1 mm 5 m/s 737 mmHg 94%
    04:00 +13°C° 0.1 mm 5 m/s 737 mmHg 94%
    05:00 +13°C° 0.1 mm 5 m/s 737 mmHg 94%
    06:00 +14°C° 0 mm 5 m/s 737 mmHg 93%
    07:00 +14°C° 0 mm 5 m/s 737 mmHg 92%
    08:00 +15°C° 0 mm 5 m/s 737 mmHg 91%
    09:00 +16°C° 0.1 mm 5 m/s 736 mmHg 90%
    10:00 +16°C° 0.1 mm 5 m/s 736 mmHg 88%
    11:00 +18°C° 0.1 mm 4 m/s 736 mmHg 87%
    12:00 +19°C° 0.1 mm 5 m/s 736 mmHg 82%
    13:00 +21°C° 0.1 mm 5 m/s 736 mmHg 77%
    14:00 +22°C° 0.1 mm 5 m/s 735 mmHg 71%
    15:00 +22°C° 0.6 mm 4 m/s 735 mmHg 74%
    16:00 +21°C° 0.6 mm 3 m/s 735 mmHg 76%
    17:00 +21°C° 0.6 mm 3 m/s 734 mmHg 78%
    18:00 +20°C° 0.3 mm 2 m/s 734 mmHg 82%
    19:00 +18°C° 0.3 mm 2 m/s 734 mmHg 85%
    20:00 +18°C° 0.3 mm 1 m/s 734 mmHg 88%
    21:00 +16°C° 0.7 mm 2 m/s 734 mmHg 89%
    22:00 +16°C° 0.7 mm 2 m/s 734 mmHg 91%
    23:00 +15°C° 0.7 mm 2 m/s 733 mmHg 92%

    26 Maio, Domingo

    Tempo Temperatura Precipitação Vento Pressão Humidade
    00:00 +15°C° 0 mm 2 m/s 733 mmHg 92%
    01:00 +14°C° 0 mm 2 m/s 733 mmHg 93%
    02:00 +14°C° 0 mm 2 m/s 733 mmHg 93%
    03:00 +14°C° 0 mm 1 m/s 733 mmHg 92%
    04:00 +15°C° 0 mm 1 m/s 733 mmHg 91%
    05:00 +15°C° 0 mm 1 m/s 733 mmHg 90%
    06:00 +16°C° 0 mm 1 m/s 733 mmHg 86%
    07:00 +19°C° 0 mm 1 m/s 733 mmHg 81%
    08:00 +20°C° 0 mm 1 m/s 734 mmHg 77%
    09:00 +20°C° 1 mm 2 m/s 734 mmHg 74%
    10:00 +21°C° 1 mm 2 m/s 734 mmHg 71%
    11:00 +22°C° 1 mm 3 m/s 734 mmHg 68%
    12:00 +22°C° 1.2 mm 3 m/s 734 mmHg 70%
    13:00 +22°C° 1.2 mm 4 m/s 734 mmHg 72%
    14:00 +21°C° 1.2 mm 4 m/s 734 mmHg 74%
    15:00 +21°C° 0.1 mm 4 m/s 734 mmHg 74%
    16:00 +21°C° 0.1 mm 4 m/s 734 mmHg 75%
    17:00 +21°C° 0.1 mm 3 m/s 734 mmHg 75%
    18:00 +19°C° 0 mm 3 m/s 735 mmHg 79%
    19:00 +18°C° 0 mm 3 m/s 735 mmHg 82%
    20:00 +16°C° 0 mm 3 m/s 735 mmHg 86%
    21:00 +14°C° 0 mm 3 m/s 735 mmHg 87%
    22:00 +14°C° 0 mm 3 m/s 736 mmHg 87%
    23:00 +13°C° 0 mm 3 m/s 736 mmHg 88%

    27 Maio, Segunda-feira

    Tempo Temperatura Precipitação Vento Pressão Humidade
    00:00 +12°C° 0 mm 3 m/s 736 mmHg 88%
    01:00 +12°C° 0 mm 3 m/s 737 mmHg 89%
    02:00 +11°C° 0 mm 3 m/s 737 mmHg 89%
    03:00 +12°C° 0 mm 3 m/s 737 mmHg 89%
    04:00 +12°C° 0 mm 3 m/s 737 mmHg 88%
    05:00 +13°C° 0 mm 3 m/s 737 mmHg 88%
    06:00 +15°C° 0 mm 4 m/s 738 mmHg 84%
    07:00 +17°C° 0 mm 4 m/s 738 mmHg 80%
    08:00 +19°C° 0 mm 5 m/s 738 mmHg 76%
    09:00 +20°C° 0.2 mm 5 m/s 738 mmHg 73%
    10:00 +21°C° 0.2 mm 6 m/s 738 mmHg 70%
    11:00 +22°C° 0.2 mm 6 m/s 739 mmHg 66%
    12:00 +23°C° 0.8 mm 6 m/s 739 mmHg 68%
    13:00 +23°C° 0.8 mm 6 m/s 739 mmHg 70%
    14:00 +23°C° 0.8 mm 6 m/s 739 mmHg 72%
    15:00 +22°C° 0.6 mm 5 m/s 739 mmHg 74%
    16:00 +22°C° 0.6 mm 5 m/s 739 mmHg 77%
    17:00 +22°C° 0.6 mm 4 m/s 739 mmHg 79%
    18:00 +21°C° 1.2 mm 3 m/s 739 mmHg 82%
    19:00 +19°C° 1.2 mm 3 m/s 739 mmHg 86%
    20:00 +18°C° 1.2 mm 3 m/s 740 mmHg 89%
    21:00 +17°C° 0.3 mm 3 m/s 740 mmHg 91%
    22:00 +17°C° 0.3 mm 3 m/s 740 mmHg 92%
    23:00 +16°C° 0.3 mm 3 m/s 740 mmHg 94%

    28 Maio, Terça-feira

    Tempo Temperatura Precipitação Vento Pressão Humidade
    00:00 +16°C° 0 mm 3 m/s 740 mmHg 94%
    01:00 +14°C° 0 mm 3 m/s 740 mmHg 95%
    02:00 +14°C° 0 mm 3 m/s 741 mmHg 95%
    03:00 +14°C° 0 mm 3 m/s 741 mmHg 95%
    04:00 +16°C° 0 mm 3 m/s 741 mmHg 94%
    05:00 +16°C° 0 mm 3 m/s 741 mmHg 94%
    06:00 +17°C° 0 mm 3 m/s 741 mmHg 90%
    07:00 +19°C° 0 mm 4 m/s 742 mmHg 87%
    08:00 +20°C° 0 mm 4 m/s 742 mmHg 84%
    09:00 +21°C° 0.2 mm 4 m/s 742 mmHg 80%
    10:00 +22°C° 0.2 mm 5 m/s 742 mmHg 76%
    11:00 +23°C° 0.2 mm 5 m/s 742 mmHg 72%
    12:00 +25°C° 0.4 mm 5 m/s 742 mmHg 71%
    13:00 +25°C° 0.4 mm 5 m/s 742 mmHg 70%
    14:00 +26°C° 0.4 mm 5 m/s 742 mmHg 69%
    15:00 +25°C° 0.1 mm 4 m/s 742 mmHg 72%
    16:00 +25°C° 0.1 mm 4 m/s 742 mmHg 74%
    17:00 +25°C° 0.1 mm 3 m/s 742 mmHg 76%
    18:00 +24°C° 0 mm 3 m/s 742 mmHg 81%
    19:00 +21°C° 0 mm 3 m/s 742 mmHg 85%
    20:00 +20°C° 0 mm 2 m/s 742 mmHg 90%
    21:00 +19°C° 0 mm 2 m/s 742 mmHg 91%
    22:00 +19°C° 0 mm 3 m/s 742 mmHg 92%
    23:00 +18°C° 0 mm 3 m/s 742 mmHg 93%
    Mostrar mais